| time (UTC) | temp F | wind direction | speed MPH | gust MPH | rain 1hr in | rain 24hr in | rain mn in | humidity % | barometer mb |
| 20260510065512 | 51 | 63 | 0.0 | 1.0 | 0.00 | 0.24 | 0.00 | 96 | 1008.3 |
| 20260510065030 | 51 | 51 | 0.0 | 1.0 | 0.00 | 0.24 | 0.00 | 96 | 1008.6 |
| 20260510064510 | 51 | 334 | 0.0 | 1.0 | 0.00 | 0.24 | 0.00 | 96 | 1008.6 |
| 20260510064046 | 51 | 334 | 0.0 | 1.0 | 0.00 | 0.24 | 0.00 | 96 | 1008.7 |
| 20260510063603 | 51 | 334 | 0.0 | 1.0 | 0.00 | 0.24 | 0.00 | 96 | 1008.7 |
| 20260510063502 | 51 | 334 | 0.0 | 0.0 | 0.00 | 0.24 | 0.00 | 96 | 1008.9 |
| 20260510063042 | 51 | 334 | 0.0 | 0.0 | 0.00 | 0.24 | 0.00 | 96 | 1009.1 |
| 20260510062508 | 51 | 334 | 0.0 | 0.0 | 0.00 | 0.24 | 0.00 | 96 | 1009.2 |
| 20260510062044 | 51 | 334 | 0.0 | 0.0 | 0.00 | 0.24 | 0.00 | 96 | 1009.1 |
| 20260510061530 | 51 | 334 | 0.0 | 0.0 | 0.00 | 0.24 | 0.00 | 96 | 1009.2 |
| 20260510061042 | 51 | 334 | 0.0 | 0.0 | 0.00 | 0.24 | 0.00 | 96 | 1009.3 |
| 20260510060523 | 51 | 334 | 0.0 | 0.0 | 0.00 | 0.24 | 0.00 | 96 | 1009.2 |
| 20260510060101 | 51 | 334 | 0.0 | 0.0 | 0.00 | 0.24 | 0.00 | 96 | 1009.6 |
| 20260510055518 | 52 | 334 | 0.0 | 0.0 | 0.00 | 0.24 | 0.00 | 95 | 1009.6 |
| 20260510055052 | 52 | 334 | 0.0 | 0.0 | 0.00 | 0.24 | 0.00 | 96 | 1009.6 |
| 20260510054532 | 52 | 333 | 0.0 | 0.0 | 0.00 | 0.24 | 0.00 | 95 | 1009.6 |
| 20260510054048 | 52 | 334 | 0.0 | 1.0 | 0.00 | 0.24 | 0.00 | 95 | 1009.2 |
| 20260510053526 | 52 | 334 | 0.0 | 1.0 | 0.00 | 0.24 | 0.00 | 95 | 1009.0 |
| 20260510053019 | 52 | 333 | 0.0 | 1.0 | 0.00 | 0.24 | 0.00 | 95 | 1008.9 |
| 20260510052525 | 52 | 334 | 0.0 | 0.0 | 0.00 | 0.24 | 0.00 | 95 | 1008.9 |
| 20260510052056 | 52 | 334 | 0.0 | 0.0 | 0.00 | 0.24 | 0.00 | 95 | 1008.7 |
| 20260510051518 | 52 | 334 | 0.0 | 0.0 | 0.00 | 0.24 | 0.00 | 95 | 1008.6 |
| 20260510051055 | 52 | 334 | 0.0 | 0.0 | 0.00 | 0.24 | 0.00 | 95 | 1008.5 |
| 20260510050513 | 52 | 334 | 0.0 | 0.0 | 0.00 | 0.24 | 0.00 | 95 | 1008.4 |
| 20260510050046 | 52 | 333 | 0.0 | 0.0 | 0.00 | 0.24 | 0.00 | 95 | 1008.5 |
| 20260510045531 | 52 | 334 | 0.0 | 0.0 | 0.00 | 0.24 | 0.00 | 95 | 1008.4 |
| 20260510045045 | 52 | 334 | 0.0 | 0.0 | 0.00 | 0.24 | 0.00 | 94 | 1008.4 |
| 20260510044524 | 52 | 334 | 0.0 | 0.0 | 0.00 | 0.24 | 0.00 | 95 | 1008.4 |
| 20260510044058 | 52 | 334 | 0.0 | 0.0 | 0.00 | 0.24 | 0.00 | 95 | 1008.5 |
| 20260510043526 | 52 | 334 | 0.0 | 0.0 | 0.00 | 0.24 | 0.00 | 95 | 1008.4 |
| 20260510043105 | 52 | 334 | 0.0 | 1.0 | 0.00 | 0.24 | 0.00 | 95 | 1008.5 |
| 20260510043004 | 52 | 334 | 0.0 | 1.0 | 0.00 | 0.24 | 0.00 | 95 | 1008.4 |
| 20260510042524 | 52 | 334 | 0.0 | 1.0 | 0.00 | 0.24 | 0.00 | 95 | 1008.4 |
| 20260510042103 | 52 | 334 | 0.0 | 2.0 | 0.00 | 0.24 | 0.00 | 95 | 1008.4 |
| 20260510042001 | 52 | 346 | 0.0 | 2.0 | 0.00 | 0.24 | 0.00 | 95 | 1008.4 |
| 20260510041532 | 52 | 346 | 0.0 | 1.0 | 0.00 | 0.24 | 0.00 | 95 | 1008.4 |
| 20260510041010 | 52 | 346 | 0.0 | 1.0 | 0.00 | 0.24 | 0.00 | 95 | 1008.5 |
| 20260510040530 | 52 | 307 | 0.0 | 1.0 | 0.00 | 0.24 | 0.00 | 94 | 1008.5 |
| 20260510040050 | 52 | 307 | 0.0 | 1.0 | 0.00 | 0.24 | 0.24 | 95 | 1008.6 |
| 20260510035529 | 52 | 307 | 0.0 | 1.0 | 0.00 | 0.24 | 0.24 | 95 | 1008.7 |
| 20260510035041 | 52 | 307 | 0.0 | 1.0 | 0.00 | 0.24 | 0.24 | 95 | 1008.7 |
| 20260510034523 | 52 | 307 | 0.0 | 1.0 | 0.00 | 0.24 | 0.24 | 95 | 1008.7 |
| 20260510034100 | 52 | 299 | 0.0 | 2.0 | 0.00 | 0.24 | 0.24 | 95 | 1008.4 |
| 20260510034003 | 52 | 299 | 0.0 | 2.0 | 0.00 | 0.24 | 0.24 | 95 | 1008.5 |
| 20260510033525 | 52 | 83 | 0.0 | 2.0 | 0.00 | 0.24 | 0.24 | 95 | 1008.2 |
| 20260510033104 | 52 | 77 | 0.0 | 1.0 | 0.00 | 0.24 | 0.24 | 95 | 1008.2 |
| 20260510032531 | 52 | 9 | 0.0 | 2.0 | 0.00 | 0.24 | 0.24 | 95 | 1008.5 |
| 20260510032016 | 52 | 60 | 0.0 | 3.0 | 0.00 | 0.24 | 0.24 | 95 | 1008.4 |
| 20260510031531 | 52 | 61 | 0.0 | 3.0 | 0.00 | 0.24 | 0.24 | 95 | 1008.3 |
| 20260510031011 | 52 | 351 | 0.0 | 2.0 | 0.00 | 0.24 | 0.24 | 95 | 1008.2 |
| 20260510030547 | 52 | 272 | 0.0 | 2.0 | 0.00 | 0.24 | 0.24 | 95 | 1008.2 |
| 20260510030029 | 52 | 32 | 0.0 | 2.0 | 0.00 | 0.24 | 0.24 | 95 | 1008.2 |
| 20260510025551 | 52 | 333 | 0.0 | 3.0 | 0.00 | 0.24 | 0.24 | 95 | 1008.3 |
| 20260510025032 | 52 | 45 | 0.0 | 3.0 | 0.00 | 0.24 | 0.24 | 95 | 1008.3 |
| 20260510024511 | 52 | 35 | 1.0 | 2.0 | 0.00 | 0.24 | 0.24 | 95 | 1008.2 |
| 20260510024049 | 52 | 84 | 0.0 | 3.0 | 0.00 | 0.24 | 0.24 | 95 | 1008.4 |
| 20260510023515 | 52 | 35 | 0.0 | 2.0 | 0.00 | 0.24 | 0.24 | 95 | 1008.5 |
| 20260510023053 | 52 | 67 | 0.0 | 3.0 | 0.00 | 0.24 | 0.24 | 95 | 1008.4 |
| 20260510022515 | 52 | 79 | 1.0 | 2.0 | 0.00 | 0.24 | 0.24 | 95 | 1008.4 |
| 20260510022049 | 52 | 114 | 0.0 | 2.0 | 0.00 | 0.24 | 0.24 | 95 | 1008.5 |
| 20260510021540 | 52 | 46 | 0.0 | 2.0 | 0.00 | 0.24 | 0.24 | 95 | 1008.5 |
| 20260510021010 | 52 | 90 | 0.0 | 2.0 | 0.00 | 0.24 | 0.24 | 95 | 1008.5 |
| 20260510020543 | 52 | 113 | 0.0 | 2.0 | 0.00 | 0.24 | 0.24 | 95 | 1008.4 |
| 20260510020019 | 52 | 128 | 0.0 | 4.0 | 0.00 | 0.24 | 0.24 | 95 | 1008.4 |
| 20260510015555 | 52 | 129 | 0.0 | 4.0 | 0.00 | 0.24 | 0.24 | 95 | 1008.4 |
| 20260510015033 | 52 | 155 | 1.0 | 3.0 | 0.00 | 0.24 | 0.24 | 95 | 1008.4 |
| 20260510014510 | 52 | 61 | 0.0 | 3.0 | 0.00 | 0.24 | 0.24 | 95 | 1008.3 |
| 20260510014029 | 52 | 68 | 0.0 | 5.0 | 0.00 | 0.24 | 0.24 | 95 | 1008.4 |
| 20260510013505 | 52 | 47 | 0.0 | 5.0 | 0.00 | 0.24 | 0.24 | 95 | 1008.5 |
| 20260510013026 | 52 | 59 | 0.0 | 3.0 | 0.00 | 0.24 | 0.24 | 95 | 1008.5 |
| 20260510012557 | 52 | 182 | 0.0 | 4.0 | 0.00 | 0.24 | 0.24 | 95 | 1008.4 |
| 20260510012501 | 52 | 65 | 0.0 | 4.0 | 0.00 | 0.24 | 0.24 | 95 | 1008.4 |
| 20260510012021 | 52 | 180 | 1.0 | 4.0 | 0.00 | 0.24 | 0.24 | 95 | 1008.2 |
| 20260510011600 | 52 | 84 | 0.0 | 4.0 | 0.00 | 0.24 | 0.24 | 95 | 1008.1 |
| 20260510011502 | 52 | 109 | 0.0 | 4.0 | 0.00 | 0.24 | 0.24 | 95 | 1008.1 |
| 20260510011041 | 52 | 11 | 0.0 | 4.0 | 0.00 | 0.24 | 0.24 | 95 | 1008.2 |
| 20260510010559 | 52 | 86 | 1.0 | 4.0 | 0.00 | 0.24 | 0.24 | 95 | 1008.2 |
| 20260510010501 | 52 | 45 | 0.0 | 3.0 | 0.00 | 0.24 | 0.24 | 95 | 1008.3 |
| 20260510010037 | 52 | 61 | 0.0 | 3.0 | 0.00 | 0.24 | 0.24 | 95 | 1008.2 |
| 20260510005513 | 52 | 51 | 0.0 | 3.0 | 0.00 | 0.24 | 0.24 | 95 | 1008.3 |
| 20260510005033 | 52 | 32 | 0.0 | 3.0 | 0.00 | 0.24 | 0.24 | 95 | 1008.2 |
| 20260510004507 | 52 | 69 | 1.0 | 3.0 | 0.00 | 0.24 | 0.24 | 95 | 1008.0 |
| 20260510004027 | 52 | 68 | 1.0 | 3.0 | 0.00 | 0.24 | 0.24 | 95 | 1007.9 |
| 20260510003503 | 53 | 35 | 1.0 | 3.0 | 0.00 | 0.24 | 0.24 | 95 | 1008.0 |
| 20260510003044 | 53 | 38 | 0.0 | 2.0 | 0.00 | 0.24 | 0.24 | 95 | 1008.0 |
| 20260510002524 | 53 | 108 | 0.0 | 3.0 | 0.00 | 0.24 | 0.24 | 95 | 1008.1 |
| 20260510002059 | 53 | 80 | 0.0 | 2.0 | 0.00 | 0.24 | 0.24 | 95 | 1008.1 |
| 20260510002004 | 53 | 84 | 0.0 | 2.0 | 0.00 | 0.24 | 0.24 | 95 | 1008.1 |
| 20260510001523 | 53 | 51 | 0.0 | 2.0 | 0.00 | 0.24 | 0.24 | 95 | 1008.1 |
| 20260510001059 | 53 | 82 | 0.0 | 2.0 | 0.00 | 0.24 | 0.24 | 95 | 1008.0 |
| 20260510001001 | 53 | 82 | 0.0 | 2.0 | 0.00 | 0.24 | 0.24 | 95 | 1008.0 |
| 20260510000519 | 53 | 110 | 0.0 | 2.0 | 0.00 | 0.24 | 0.24 | 95 | 1008.0 |
| 20260510000059 | 53 | 82 | 0.0 | 2.0 | 0.00 | 0.24 | 0.24 | 95 | 1008.0 |
| 20260509235534 | 53 | 47 | 0.0 | 2.0 | 0.00 | 0.24 | 0.24 | 95 | 1007.9 |
| 20260509235047 | 53 | 15 | 0.0 | 2.0 | 0.00 | 0.24 | 0.24 | 95 | 1007.8 |
| 20260509234526 | 53 | 78 | 0.0 | 2.0 | 0.00 | 0.24 | 0.24 | 95 | 1007.6 |
| 20260509234008 | 53 | 59 | 0.0 | 2.0 | 0.00 | 0.24 | 0.24 | 95 | 1007.5 |
| 20260509233526 | 53 | 76 | 0.0 | 4.0 | 0.00 | 0.24 | 0.24 | 95 | 1007.5 |
| 20260509233005 | 53 | 28 | 1.0 | 4.0 | 0.00 | 0.24 | 0.24 | 95 | 1007.6 |
| 20260509232542 | 53 | 360 | 0.0 | 2.0 | 0.00 | 0.24 | 0.24 | 95 | 1007.6 |
| 20260509232018 | 53 | 39 | 0.0 | 2.0 | 0.00 | 0.24 | 0.24 | 96 | 1007.6 |
| 20260509231544 | 53 | 13 | 0.0 | 2.0 | 0.00 | 0.24 | 0.24 | 96 | 1007.5 |
| 20260509231021 | 53 | 99 | 0.0 | 1.0 | 0.00 | 0.24 | 0.24 | 96 | 1007.6 |
| 20260509230537 | 53 | 5 | 0.0 | 2.0 | 0.00 | 0.24 | 0.24 | 96 | 1007.6 |
| 20260509230019 | 53 | 65 | 0.0 | 4.0 | 0.00 | 0.24 | 0.24 | 96 | 1007.3 |
| 20260509225555 | 53 | 51 | 1.0 | 4.0 | 0.00 | 0.24 | 0.24 | 96 | 1007.3 |
| 20260509225020 | 53 | 68 | 1.0 | 3.0 | 0.00 | 0.24 | 0.24 | 96 | 1007.3 |
| 20260509224556 | 53 | 108 | 0.0 | 2.0 | 0.00 | 0.24 | 0.24 | 96 | 1007.3 |
| 20260509224035 | 53 | 80 | 0.0 | 3.0 | 0.00 | 0.24 | 0.24 | 96 | 1007.3 |
| 20260509223556 | 52 | 43 | 1.0 | 3.0 | 0.00 | 0.24 | 0.24 | 96 | 1007.3 |
| 20260509223033 | 52 | 82 | 0.0 | 2.0 | 0.00 | 0.24 | 0.24 | 97 | 1007.3 |
| 20260509222513 | 52 | 96 | 0.0 | 2.0 | 0.00 | 0.24 | 0.24 | 97 | 1007.3 |
| 20260509222044 | 52 | 59 | 0.0 | 2.0 | 0.00 | 0.24 | 0.24 | 97 | 1007.2 |
| 20260509221529 | 52 | 74 | 0.0 | 2.0 | 0.00 | 0.24 | 0.24 | 97 | 1007.3 |
| 20260509221059 | 52 | 61 | 0.0 | 2.0 | 0.00 | 0.24 | 0.24 | 97 | 1007.3 |
| 20260509221001 | 52 | 62 | 0.0 | 2.0 | 0.00 | 0.24 | 0.24 | 97 | 1007.3 |
| 20260509220540 | 51 | 68 | 0.0 | 2.0 | 0.00 | 0.24 | 0.24 | 97 | 1007.5 |
| 20260509220055 | 51 | 360 | 0.0 | 3.0 | 0.00 | 0.24 | 0.24 | 97 | 1007.5 |
| 20260509215533 | 51 | 124 | 1.0 | 3.0 | 0.00 | 0.24 | 0.24 | 97 | 1007.6 |
| 20260509215010 | 51 | 61 | 0.0 | 4.0 | 0.00 | 0.24 | 0.24 | 97 | 1007.6 |
| 20260509214531 | 51 | 54 | 1.0 | 4.0 | 0.00 | 0.24 | 0.24 | 97 | 1007.8 |
| 20260509214011 | 51 | 92 | 1.0 | 4.0 | 0.00 | 0.24 | 0.24 | 97 | 1007.7 |
| 20260509213544 | 51 | 89 | 0.0 | 4.0 | 0.00 | 0.24 | 0.24 | 96 | 1007.9 |
| 20260509213023 | 51 | 114 | 0.0 | 2.0 | 0.00 | 0.24 | 0.24 | 97 | 1008.0 |
| 20260509212540 | 50 | 65 | 0.0 | 3.0 | 0.00 | 0.24 | 0.24 | 96 | 1008.0 |
| 20260509212059 | 50 | 103 | 1.0 | 3.0 | 0.00 | 0.24 | 0.24 | 96 | 1008.0 |
| 20260509211536 | 50 | 67 | 0.0 | 2.0 | 0.00 | 0.24 | 0.24 | 97 | 1008.0 |
| 20260509211017 | 50 | 84 | 0.0 | 2.0 | 0.00 | 0.24 | 0.24 | 97 | 1008.1 |
| 20260509210551 | 50 | 64 | 0.0 | 3.0 | 0.00 | 0.24 | 0.24 | 96 | 1008.2 |
| 20260509210013 | 50 | 49 | 0.0 | 3.0 | 0.00 | 0.24 | 0.24 | 96 | 1008.2 |
| 20260509205546 | 50 | 140 | 0.0 | 2.0 | 0.00 | 0.24 | 0.24 | 96 | 1008.3 |
| 20260509205026 | 50 | 83 | 0.0 | 2.0 | 0.00 | 0.24 | 0.24 | 96 | 1008.3 |
| 20260509204505 | 50 | 61 | 0.0 | 2.0 | 0.00 | 0.24 | 0.24 | 97 | 1008.3 |
| 20260509204023 | 50 | 63 | 0.0 | 2.0 | 0.00 | 0.24 | 0.24 | 97 | 1008.3 |
| 20260509203602 | 50 | 77 | 1.0 | 2.0 | 0.00 | 0.24 | 0.24 | 96 | 1008.3 |
| 20260509203056 | 50 | 124 | 0.0 | 2.0 | 0.00 | 0.24 | 0.24 | 96 | 1008.4 |
| 20260509202556 | 50 | 55 | 0.0 | 2.0 | 0.00 | 0.24 | 0.24 | 96 | 1008.5 |
| 20260509202039 | 49 | 85 | 0.0 | 3.0 | 0.00 | 0.24 | 0.24 | 96 | 1008.6 |
| 20260509201519 | 49 | 59 | 1.0 | 3.0 | 0.00 | 0.24 | 0.24 | 96 | 1008.6 |
| 20260509201040 | 49 | 85 | 0.0 | 3.0 | 0.00 | 0.24 | 0.24 | 96 | 1008.7 |
| 20260509200523 | 49 | 69 | 0.0 | 3.0 | 0.00 | 0.24 | 0.24 | 96 | 1008.7 |
| 20260509200057 | 49 | 76 | 1.0 | 3.0 | 0.00 | 0.24 | 0.24 | 96 | 1008.8 |
| 20260509195519 | 49 | 44 | 0.0 | 3.0 | 0.00 | 0.24 | 0.24 | 96 | 1008.8 |
| 20260509195052 | 49 | 88 | 1.0 | 3.0 | 0.00 | 0.24 | 0.24 | 96 | 1008.9 |
| 20260509194534 | 49 | 58 | 0.0 | 5.0 | 0.00 | 0.24 | 0.24 | 96 | 1009.0 |
| 20260509194051 | 49 | 11 | 1.0 | 5.0 | 0.00 | 0.24 | 0.24 | 96 | 1009.0 |
| 20260509193531 | 49 | 289 | 1.0 | 4.0 | 0.00 | 0.24 | 0.24 | 96 | 1009.1 |
| 20260509193043 | 49 | 41 | 1.0 | 4.0 | 0.00 | 0.24 | 0.24 | 97 | 1009.2 |
| 20260509192520 | 49 | 92 | 1.0 | 3.0 | 0.00 | 0.24 | 0.24 | 97 | 1009.2 |
| 20260509192056 | 49 | 15 | 1.0 | 3.0 | 0.00 | 0.24 | 0.24 | 96 | 1009.1 |
| 20260509191512 | 49 | 40 | 1.0 | 4.0 | 0.00 | 0.24 | 0.24 | 97 | 1009.2 |
| 20260509191053 | 49 | 47 | 1.0 | 4.0 | 0.00 | 0.24 | 0.24 | 97 | 1009.2 |
| 20260509190524 | 49 | 119 | 1.0 | 3.0 | 0.00 | 0.24 | 0.24 | 97 | 1009.3 |
| 20260509190054 | 49 | 319 | 1.0 | 6.0 | 0.00 | 0.24 | 0.24 | 97 | 1009.3 |
| 20260509185526 | 49 | 336 | 2.0 | 6.0 | 0.00 | 0.24 | 0.24 | 96 | 1009.4 |
| 20260509185101 | 49 | 49 | 1.0 | 4.0 | 0.00 | 0.24 | 0.24 | 96 | 1009.5 |
| 20260509185002 | 49 | 110 | 2.0 | 4.0 | 0.00 | 0.24 | 0.24 | 96 | 1009.5 |
| 20260509184534 | 49 | 169 | 0.0 | 4.0 | 0.00 | 0.24 | 0.24 | 97 | 1009.5 |
| 20260509184100 | 49 | 107 | 1.0 | 4.0 | 0.00 | 0.24 | 0.24 | 96 | 1009.4 |
| 20260509184002 | 49 | 101 | 1.0 | 4.0 | 0.00 | 0.24 | 0.24 | 96 | 1009.5 |
| 20260509183536 | 49 | 355 | 0.0 | 3.0 | 0.00 | 0.24 | 0.24 | 97 | 1009.5 |
| 20260509183014 | 48 | 35 | 0.0 | 3.0 | 0.01 | 0.24 | 0.24 | 96 | 1009.5 |
| 20260509182551 | 48 | 92 | 1.0 | 5.0 | 0.01 | 0.24 | 0.24 | 96 | 1009.4 |
| 20260509182030 | 48 | 50 | 1.0 | 5.0 | 0.01 | 0.24 | 0.24 | 96 | 1009.6 |
| 20260509181506 | 48 | 38 | 0.0 | 4.0 | 0.01 | 0.24 | 0.24 | 96 | 1009.4 |
| 20260509181025 | 48 | 39 | 1.0 | 5.0 | 0.01 | 0.24 | 0.24 | 96 | 1009.6 |
| 20260509180557 | 48 | 76 | 1.0 | 5.0 | 0.01 | 0.24 | 0.24 | 96 | 1009.6 |
| 20260509180022 | 48 | 46 | 1.0 | 5.0 | 0.02 | 0.24 | 0.24 | 96 | 1009.6 |
| 20260509175554 | 48 | 155 | 1.0 | 6.0 | 0.02 | 0.24 | 0.24 | 96 | 1009.6 |
| 20260509175036 | 48 | 69 | 1.0 | 5.0 | 0.02 | 0.24 | 0.24 | 96 | 1009.7 |
| 20260509174614 | 48 | 202 | 1.0 | 3.0 | 0.02 | 0.24 | 0.24 | 96 | 1009.7 |
| 20260509174033 | 48 | 42 | 1.0 | 4.0 | 0.03 | 0.24 | 0.24 | 96 | 1009.6 |
| 20260509173550 | 48 | 61 | 1.0 | 4.0 | 0.03 | 0.24 | 0.24 | 96 | 1009.7 |
| 20260509173033 | 48 | 65 | 1.0 | 3.0 | 0.03 | 0.24 | 0.24 | 96 | 1009.7 |
| 20260509172545 | 47 | 62 | 0.0 | 3.0 | 0.02 | 0.23 | 0.23 | 96 | 1009.8 |
| 20260509172022 | 48 | 80 | 1.0 | 3.0 | 0.02 | 0.23 | 0.23 | 96 | 1009.7 |
| 20260509171542 | 48 | 38 | 1.0 | 4.0 | 0.02 | 0.23 | 0.23 | 96 | 1009.7 |
| 20260509171024 | 48 | 47 | 1.0 | 5.0 | 0.02 | 0.23 | 0.23 | 96 | 1009.8 |
| 20260509170601 | 48 | 158 | 1.0 | 5.0 | 0.01 | 0.22 | 0.23 | 96 | 1009.9 |
| 20260509170502 | 48 | 116 | 0.0 | 5.0 | 0.02 | 0.22 | 0.22 | 96 | 1009.9 |
| 20260509170037 | 48 | 17 | 1.0 | 5.0 | 0.02 | 0.22 | 0.22 | 96 | 1009.8 |
| 20260509165515 | 48 | 55 | 0.0 | 3.0 | 0.02 | 0.22 | 0.22 | 97 | 1009.9 |
| 20260509165049 | 48 | 44 | 0.0 | 4.0 | 0.02 | 0.22 | 0.22 | 96 | 1010.0 |
| 20260509164512 | 48 | 90 | 1.0 | 4.0 | 0.02 | 0.22 | 0.22 | 96 | 1010.2 |
| 20260509164046 | 48 | 22 | 1.0 | 3.0 | 0.02 | 0.21 | 0.21 | 96 | 1010.2 |
| 20260509163523 | 48 | 77 | 1.0 | 3.0 | 0.02 | 0.21 | 0.21 | 96 | 1010.3 |
| 20260509163101 | 48 | 355 | 0.0 | 3.0 | 0.02 | 0.21 | 0.21 | 96 | 1010.4 |
| 20260509163002 | 48 | 323 | 0.0 | 3.0 | 0.02 | 0.21 | 0.21 | 96 | 1010.4 |
| 20260509162540 | 48 | 59 | 0.0 | 4.0 | 0.03 | 0.21 | 0.21 | 96 | 1010.5 |
| 20260509162055 | 48 | 54 | 1.0 | 4.0 | 0.03 | 0.21 | 0.21 | 96 | 1010.4 |
| 20260509161535 | 48 | 61 | 2.0 | 4.0 | 0.03 | 0.21 | 0.21 | 97 | 1010.5 |
| 20260509161010 | 48 | 209 | 1.0 | 3.0 | 0.04 | 0.21 | 0.21 | 97 | 1010.5 |
| 20260509160526 | 47 | 26 | 1.0 | 5.0 | 0.04 | 0.21 | 0.21 | 97 | 1010.6 |
| 20260509160101 | 47 | 18 | 1.0 | 5.0 | 0.03 | 0.20 | 0.20 | 97 | 1010.7 |
| 20260509160002 | 47 | 48 | 1.0 | 5.0 | 0.03 | 0.20 | 0.20 | 97 | 1010.7 |
| 20260509155541 | 47 | 101 | 0.0 | 3.0 | 0.04 | 0.20 | 0.20 | 97 | 1010.7 |
| 20260509155054 | 47 | 25 | 0.0 | 2.0 | 0.04 | 0.20 | 0.20 | 97 | 1010.8 |
| 20260509154534 | 46 | 50 | 0.0 | 3.0 | 0.05 | 0.20 | 0.20 | 96 | 1011.0 |
| 20260509154053 | 46 | 105 | 1.0 | 3.0 | 0.05 | 0.19 | 0.19 | 96 | 1011.1 |
| 20260509153535 | 46 | 44 | 1.0 | 2.0 | 0.05 | 0.19 | 0.19 | 97 | 1011.2 |
| 20260509153100 | 46 | 77 | 0.0 | 3.0 | 0.06 | 0.19 | 0.19 | 96 | 1011.3 |
| 20260509152536 | 46 | 37 | 1.0 | 3.0 | 0.05 | 0.18 | 0.18 | 97 | 1011.4 |
| 20260509152049 | 46 | 20 | 1.0 | 2.0 | 0.06 | 0.18 | 0.18 | 96 | 1011.3 |
| 20260509151533 | 46 | 33 | 0.0 | 3.0 | 0.07 | 0.18 | 0.18 | 96 | 1011.3 |
| 20260509151046 | 45 | 342 | 1.0 | 4.0 | 0.06 | 0.17 | 0.18 | 96 | 1011.3 |
| 20260509150530 | 45 | 103 | 1.0 | 3.0 | 0.07 | 0.17 | 0.17 | 96 | 1011.4 |
| 20260509150046 | 45 | 75 | 0.0 | 5.0 | 0.07 | 0.17 | 0.17 | 96 | 1011.4 |
| 20260509145526 | 45 | 61 | 0.0 | 2.0 | 0.07 | 0.16 | 0.16 | 96 | 1011.4 |
| 20260509145055 | 45 | 59 | 0.0 | 2.0 | 0.07 | 0.16 | 0.16 | 96 | 1011.3 |
| 20260509144538 | 45 | 31 | 0.0 | 2.0 | 0.07 | 0.15 | 0.15 | 96 | 1011.3 |
| 20260509144054 | 45 | 5 | 1.0 | 2.0 | 0.07 | 0.14 | 0.14 | 96 | 1011.4 |
| 20260509143536 | 45 | 42 | 0.0 | 3.0 | 0.07 | 0.14 | 0.14 | 96 | 1011.4 |
| 20260509143054 | 45 | 58 | 0.0 | 3.0 | 0.07 | 0.13 | 0.13 | 95 | 1011.4 |
| 20260509142535 | 45 | 337 | 0.0 | 4.0 | 0.07 | 0.13 | 0.13 | 96 | 1011.3 |
| 20260509142050 | 45 | 56 | 0.0 | 4.0 | 0.07 | 0.12 | 0.12 | 95 | 1011.3 |
| 20260509141533 | 45 | 60 | 1.0 | 3.0 | 0.06 | 0.11 | 0.11 | 96 | 1011.4 |
| 20260509141046 | 45 | 53 | 0.0 | 2.0 | 0.07 | 0.11 | 0.11 | 96 | 1011.5 |
| 20260509140524 | 45 | 126 | 0.0 | 2.0 | 0.06 | 0.10 | 0.10 | 95 | 1011.4 |
| 20260509135524 | 45 | 134 | 0.0 | 3.0 | 0.06 | 0.09 | 0.09 | 95 | 1011.2 |
| 20260509135058 | 45 | 11 | 0.0 | 3.0 | 0.06 | 0.09 | 0.09 | 95 | 1011.4 |
| 20260509134520 | 45 | 100 | 0.0 | 3.0 | 0.05 | 0.08 | 0.08 | 95 | 1011.3 |
| 20260509134053 | 44 | 100 | 0.0 | 3.0 | 0.04 | 0.07 | 0.08 | 95 | 1011.4 |
| 20260509133518 | 44 | 82 | 0.0 | 2.0 | 0.05 | 0.07 | 0.07 | 94 | 1011.4 |
| 20260509133052 | 44 | 57 | 0.0 | 2.0 | 0.04 | 0.06 | 0.06 | 95 | 1011.4 |
| 20260509132512 | 44 | 88 | 0.0 | 2.0 | 0.03 | 0.05 | 0.06 | 94 | 1011.5 |
| 20260509132045 | 44 | 128 | 0.0 | 2.0 | 0.03 | 0.05 | 0.05 | 94 | 1011.5 |
| 20260509131522 | 44 | 55 | 1.0 | 3.0 | 0.03 | 0.04 | 0.04 | 94 | 1011.5 |
| 20260509131041 | 44 | 107 | 0.0 | 3.0 | 0.03 | 0.04 | 0.04 | 94 | 1011.5 |
| 20260509130522 | 44 | 63 | 1.0 | 3.0 | 0.03 | 0.04 | 0.04 | 93 | 1011.5 |
| 20260509130106 | 44 | 69 | 1.0 | 3.0 | 0.02 | 0.03 | 0.03 | 93 | 1011.5 |
| 20260509125537 | 44 | 63 | 1.0 | 4.0 | 0.03 | 0.03 | 0.03 | 93 | 1011.5 |
| 20260509125054 | 44 | 48 | 0.0 | 4.0 | 0.03 | 0.03 | 0.03 | 93 | 1011.5 |
| 20260509124540 | 44 | 106 | 0.0 | 2.0 | 0.03 | 0.03 | 0.03 | 93 | 1011.4 |
| 20260509124010 | 44 | 84 | 0.0 | 5.0 | 0.02 | 0.02 | 0.02 | 92 | 1011.4 |
| 20260509123544 | 44 | 57 | 1.0 | 5.0 | 0.02 | 0.02 | 0.02 | 92 | 1011.5 |
| 20260509123024 | 44 | 59 | 0.0 | 3.0 | 0.02 | 0.02 | 0.02 | 91 | 1011.6 |
| 20260509122542 | 44 | 43 | 1.0 | 3.0 | 0.02 | 0.02 | 0.02 | 91 | 1011.7 |
| 20260509122023 | 44 | 83 | 1.0 | 3.0 | 0.02 | 0.02 | 0.02 | 91 | 1011.7 |
| 20260509121633 | 44 | 22 | 1.0 | 3.0 | 0.01 | 0.01 | 0.01 | 90 | 1011.7 |
| 20260509121502 | 44 | 51 | 1.0 | 3.0 | 0.01 | 0.01 | 0.01 | 90 | 1011.7 |
| 20260509121020 | 44 | 130 | 0.0 | 3.0 | 0.01 | 0.01 | 0.01 | 90 | 1011.7 |
| 20260509120542 | 44 | 86 | 1.0 | 3.0 | 0.01 | 0.01 | 0.01 | 89 | 1011.6 |
| 20260509120020 | 44 | 61 | 0.0 | 3.0 | 0.01 | 0.01 | 0.01 | 88 | 1011.7 |
| 20260509115553 | 44 | 133 | 0.0 | 4.0 | 0.00 | 0.00 | 0.00 | 87 | 1011.8 |
| 20260509115017 | 44 | 92 | 0.0 | 5.0 | 0.00 | 0.00 | 0.00 | 87 | 1011.7 |
| 20260509114557 | 45 | 63 | 2.0 | 5.0 | 0.00 | 0.00 | 0.00 | 86 | 1011.6 |
| 20260509114028 | 45 | 75 | 1.0 | 3.0 | 0.00 | 0.00 | 0.00 | 86 | 1011.8 |
| 20260509113603 | 45 | 95 | 0.0 | 3.0 | 0.00 | 0.00 | 0.00 | 85 | 1011.9 |
| 20260509113502 | 45 | 73 | 0.0 | 3.0 | 0.00 | 0.00 | 0.00 | 85 | 1011.9 |
| 20260509113024 | 45 | 158 | 1.0 | 4.0 | 0.00 | 0.00 | 0.00 | 84 | 1012.0 |
| 20260509112551 | 45 | 117 | 0.0 | 5.0 | 0.00 | 0.00 | 0.00 | 84 | 1011.7 |
| 20260509112031 | 44 | 59 | 1.0 | 5.0 | 0.00 | 0.00 | 0.00 | 83 | 1011.6 |
| 20260509111545 | 44 | 10 | 1.0 | 5.0 | 0.00 | 0.00 | 0.00 | 84 | 1011.5 |
| 20260509111024 | 43 | 311 | 1.0 | 4.0 | 0.00 | 0.00 | 0.00 | 85 | 1011.7 |
| 20260509110558 | 43 | 128 | 0.0 | 4.0 | 0.00 | 0.00 | 0.00 | 86 | 1011.9 |
| 20260509110035 | 42 | 61 | 2.0 | 4.0 | 0.00 | 0.00 | 0.00 | 88 | 1011.7 |
| 20260509105549 | 41 | 72 | 0.0 | 2.0 | 0.00 | 0.00 | 0.00 | 90 | 1011.5 |
| 20260509105027 | 40 | 24 | 0.0 | 0.0 | 0.00 | 0.00 | 0.00 | 90 | 1011.5 |
| 20260509104600 | 40 | 24 | 0.0 | 0.0 | 0.00 | 0.00 | 0.00 | 90 | 1011.4 |
| 20260509104505 | 40 | 24 | 0.0 | 0.0 | 0.00 | 0.00 | 0.00 | 90 | 1011.4 |
| 20260509104039 | 40 | 24 | 0.0 | 0.0 | 0.00 | 0.00 | 0.00 | 90 | 1011.4 |
| 20260509103553 | 40 | 24 | 0.0 | 0.0 | 0.00 | 0.00 | 0.00 | 89 | 1011.3 |
| 20260509103041 | 40 | 24 | 0.0 | 0.0 | 0.00 | 0.00 | 0.00 | 89 | 1011.3 |
| 20260509102514 | 39 | 24 | 0.0 | 0.0 | 0.00 | 0.00 | 0.00 | 89 | 1011.4 |
| 20260509102050 | 39 | 24 | 0.0 | 0.0 | 0.00 | 0.00 | 0.00 | 89 | 1011.3 |
| 20260509101516 | 39 | 24 | 0.0 | 0.0 | 0.00 | 0.00 | 0.00 | 88 | 1011.3 |
| 20260509101045 | 39 | 24 | 0.0 | 0.0 | 0.00 | 0.00 | 0.00 | 88 | 1011.4 |
| 20260509100521 | 39 | 24 | 0.0 | 0.0 | 0.00 | 0.00 | 0.00 | 88 | 1011.7 |
| 20260509100040 | 39 | 24 | 0.0 | 1.0 | 0.00 | 0.00 | 0.00 | 88 | 1011.8 |
| 20260509095516 | 39 | 24 | 0.0 | 1.0 | 0.00 | 0.00 | 0.00 | 87 | 1011.9 |
| 20260509095034 | 39 | 24 | 0.0 | 0.0 | 0.00 | 0.00 | 0.00 | 87 | 1011.8 |
| 20260509094513 | 39 | 24 | 0.0 | 0.0 | 0.00 | 0.00 | 0.00 | 87 | 1011.7 |
| 20260509094031 | 39 | 24 | 0.0 | 0.0 | 0.00 | 0.00 | 0.00 | 87 | 1011.6 |
| 20260509093514 | 38 | 24 | 0.0 | 0.0 | 0.00 | 0.00 | 0.00 | 87 | 1011.7 |
| 20260509093050 | 38 | 24 | 0.0 | 0.0 | 0.00 | 0.00 | 0.00 | 87 | 1011.8 |
| 20260509092515 | 38 | 24 | 0.0 | 0.0 | 0.00 | 0.00 | 0.00 | 88 | 1011.8 |
| 20260509092053 | 38 | 24 | 0.0 | 0.0 | 0.00 | 0.00 | 0.00 | 88 | 1011.9 |
| 20260509091515 | 38 | 24 | 0.0 | 0.0 | 0.00 | 0.00 | 0.00 | 89 | 1012.1 |
| 20260509091050 | 38 | 24 | 0.0 | 0.0 | 0.00 | 0.00 | 0.00 | 89 | 1012.1 |
| 20260509090515 | 38 | 24 | 0.0 | 0.0 | 0.00 | 0.00 | 0.00 | 89 | 1012.1 |
| 20260509090059 | 37 | 24 | 0.0 | 0.0 | 0.00 | 0.00 | 0.00 | 90 | 1012.0 |
| 20260509085513 | 37 | 24 | 0.0 | 0.0 | 0.00 | 0.00 | 0.00 | 90 | 1012.0 |
| 20260509085047 | 37 | 24 | 0.0 | 0.0 | 0.00 | 0.00 | 0.00 | 90 | 1012.1 |
| 20260509084515 | 37 | 24 | 0.0 | 0.0 | 0.00 | 0.00 | 0.00 | 91 | 1012.1 |
| 20260509084046 | 37 | 24 | 0.0 | 0.0 | 0.00 | 0.00 | 0.00 | 91 | 1012.1 |
| 20260509083532 | 36 | 24 | 0.0 | 0.0 | 0.00 | 0.00 | 0.00 | 91 | 1012.1 |
| 20260509083053 | 36 | 24 | 0.0 | 0.0 | 0.00 | 0.00 | 0.00 | 91 | 1012.1 |
| 20260509082523 | 36 | 24 | 0.0 | 0.0 | 0.00 | 0.00 | 0.00 | 91 | 1012.0 |
| 20260509082039 | 36 | 24 | 0.0 | 0.0 | 0.00 | 0.00 | 0.00 | 91 | 1012.1 |
| 20260509081523 | 36 | 24 | 0.0 | 0.0 | 0.00 | 0.00 | 0.00 | 91 | 1012.1 |
| 20260509081055 | 36 | 24 | 0.0 | 0.0 | 0.00 | 0.00 | 0.00 | 91 | 1012.0 |
| 20260509080516 | 36 | 24 | 0.0 | 0.0 | 0.00 | 0.00 | 0.00 | 90 | 1011.8 |
| 20260509080053 | 36 | 24 | 0.0 | 0.0 | 0.00 | 0.00 | 0.00 | 90 | 1011.8 |
| 20260509075536 | 36 | 24 | 0.0 | 0.0 | 0.00 | 0.00 | 0.00 | 90 | 1011.7 |
| 20260509075053 | 36 | 24 | 0.0 | 0.0 | 0.00 | 0.00 | 0.00 | 90 | 1011.8 |
| 20260509074533 | 36 | 24 | 0.0 | 1.0 | 0.00 | 0.00 | 0.00 | 89 | 1011.7 |
| 20260509074051 | 36 | 24 | 0.0 | 1.0 | 0.00 | 0.00 | 0.00 | 89 | 1011.7 |
| 20260509073534 | 36 | 24 | 0.0 | 1.0 | 0.00 | 0.00 | 0.00 | 89 | 1011.8 |
| 20260509073050 | 36 | 24 | 0.0 | 0.0 | 0.00 | 0.00 | 0.00 | 90 | 1011.8 |
| 20260509072526 | 37 | 24 | 0.0 | 0.0 | 0.00 | 0.00 | 0.00 | 90 | 1011.8 |
| 20260509072004 | 37 | 24 | 0.0 | 0.0 | 0.00 | 0.00 | 0.00 | 89 | 1011.9 |
| 20260509071534 | 37 | 24 | 0.0 | 0.0 | 0.00 | 0.00 | 0.00 | 89 | 1011.8 |
| 20260509071003 | 37 | 24 | 0.0 | 0.0 | 0.00 | 0.00 | 0.00 | 88 | 1011.7 |
| 20260509070541 | 37 | 24 | 0.0 | 0.0 | 0.00 | 0.00 | 0.00 | 87 | 1011.5 |
| 20260509070056 | 37 | 24 | 0.0 | 0.0 | 0.00 | 0.00 | 0.00 | 86 | 1011.6 |